Orbital Elements at Epoch 2459000.5 (2020-May-31.0) TDB
Reference: JPL 12 (heliocentric ecliptic J2000)
Element | Value | Uncertainty (1-sigma) | Units |
e | .2177712421638614 | 5.0534e-08 | |
a | 2.403570945617041 | 8.682e-09 | au |
q | 1.880142315161051 | 1.2502e-07 | au |
i | 2.256042510539133 | 5.0829e-06 | deg |
node | 349.3225748362862 | 9.356e-05 | deg |
peri | 333.0017392427383 | 9.4023e-05 | deg |
M | 265.8766661266025 | 8.5068e-06 | deg |
tp | 2459356.359567124376 (2021-May-21.85956712) | 3.2808e-05 | TDB |
period | 1361.080604487424 3.73 | 7.3746e-06 2.019e-08 | d yr |
n | .2644957240688726 | 1.4331e-09 | deg/d |
Q | 2.926999576073031 | 1.0573e-08 | au |
|
| | Orbit Determination Parameters
Additional Information
|